This is the latest recevied weather packets stored in our database for station/object CE3MXM-12. If no packets are shown the sender has not sent any weather packets the latest 10 day(s).
| Time | Temp. | Humidity | Pressure | Rain* | Wind** | Luminosity | Snow |
|---|---|---|---|---|---|---|---|
| 1777993504 | 20° C | 60% | 1012.4 hPa | - | - | - | - |
| 1777993205 | 20° C | 60% | 1012.5 hPa | - | - | - | - |
| 1777992904 | 20.56° C | 59% | 1012.3 hPa | - | - | - | - |
| 1777992604 | 20° C | 61% | 1012.3 hPa | - | - | - | - |
| 1777992304 | 20° C | 60% | 1012.6 hPa | - | - | - | - |
| 1777992004 | 20° C | 60% | 1012.3 hPa | - | - | - | - |
| 1777991704 | 20° C | 61% | 1012.5 hPa | - | - | - | - |
| 1777991404 | 20° C | 59% | 1012.5 hPa | - | - | - | - |
| 1777991105 | 20° C | 59% | 1012.6 hPa | - | - | - | - |
| 1777990803 | 19.44° C | 59% | 1012.7 hPa | - | - | - | - |
| 1777990504 | 19.44° C | 59% | 1012.6 hPa | - | - | - | - |
| 1777989903 | 18.89° C | 59% | 1012.7 hPa | - | - | - | - |
| 1777989604 | 18.89° C | 58% | 1012.6 hPa | - | - | - | - |
| 1777989303 | 18.89° C | 57% | 1012.7 hPa | - | - | - | - |
| 1777989003 | 18.89° C | 57% | 1012.5 hPa | - | - | - | - |
| 1777988703 | 18.89° C | 55% | 1012.5 hPa | - | - | - | - |
| 1777988403 | 18.89° C | 55% | 1012.7 hPa | - | - | - | - |
| 1777988102 | 18.33° C | 53% | 1012.8 hPa | - | - | - | - |
| 1777987802 | 18.33° C | 54% | 1012.7 hPa | - | - | - | - |
| 1777987502 | 18.33° C | 52% | 1012.6 hPa | - | - | - | - |
| 1777987202 | 18.33° C | 55% | 1012.6 hPa | - | - | - | - |
| 1777986902 | 17.22° C | 56% | 1012.8 hPa | - | - | - | - |
| 1777986602 | 16.67° C | 61% | 1012.9 hPa | - | - | - | - |
| 1777986302 | 16.67° C | 65% | 1013 hPa | - | - | - | - |
| 1777986002 | 16.11° C | 64% | 1013 hPa | - | - | - | - |
* Rain since midnight (hover to see other rain measurements)
** Current wind speed in m/s (hover to see current wind gust speed)